NIMBUS 2 DEB, 28200

Orbit data source: Space-Track

NIMBUS 2 DEB, 28200 is space debris in SSO originally from a launch on Sun, 15 May 1966 UTC launched from the Air Force Western Test Range (AFWTR). Debris objects in space refer to the collection of defunct objects orbiting the Earth. Examples of debris include non-operational satellites, rocket bodies, and fragments generated from explosions, collisions, or faulty payload assembly.

Loading next visibility...
Identifier
28200, 1966-040N
Orbit
SSO
Country
Flag of USUS
Related business
Manufacturer
Unknown
Mission
Spacecraft
Bus & Motor
Unknown
Mass
Unknown
Launch date (UTC)
1966-05-15 (59 years ago)
Launch vehicle
Unknown
Launch site
Air Force Western Test Range (AFWTR)
Object type
Payload
Rocket body
Debris
Shape & HBR
Unknown shape, 0.1 m
Radar Cross Section
Small (<0.1 m²)

Expand to show TLE details & history
Last TLE update: 1 day ago

TLE from 1 day ago
0 NIMBUS 2 DEB
1 28200U 66040N   25286.24064459 -.00002348  00000-0 -51739-2 0  9991
2 28200  99.6439  22.4796 0051155 224.5433 162.7906 13.26463325 98928
Epoch: 2025-10-13T05:46Z
TLE epoch observation values (Epoch: 2025-10-13T05:46:31.692Z)
Latitude
27.123°
Longitude
-91.16682°
Altitude
1,200.17 km
Speed
7.238 km/s
True Right ascension
01h 10m 02s
True Declination
26° 59' 31"
Sunlit
Object was in full shadow at epoch
Visualization orbit readout
Latitude
Unknown
Longitude
Unknown
Altitude
Unknown
Speed
Unknown
Apparent Right ascension
Unknown
Apparent Declination
Unknown
Sunlit
N/A
Visualization observer readout
Local Sidereal Time
08:11:57
Azimuth
Unknown
Elevation
Unknown
Doppler factor
Unknown
Orbital elements
Apogee altitude
1,196.011 km
Perigee altitude
1,118.914 km
Semi-major axis
7,535.6 km
Eccentricity
0.00512
Inclination
99.6439°
RAAN
22.4796°
Arg. of periapsis
224.5433°
True anomaly
162.96298°
Mean anomaly
162.7906°
Eccentric anomaly
162.8769°
Mean motion
3.31792 °/min
Orbital period
108.5 mins
BSTAR
-0.0051739
Loading maneuver chart data...
Computing Atmospheric mass density...
Loading historical data...
Loading historical data...
Loading historical data...
Loading historical data...
Loading historical data...
Loading historical data...
Loading historical data...

Documentation

Showing up to 5 results
|